[ hide orbit diagram ]
For accurate long-term ephemerides, please instead use our Horizons system.This orbit viewer was implemented using two-body methods, and hence should not be used for determining accurate long-term trajectories (over several years or decades) or planetary encounter circumstances.
Orbital Elements at Epoch 2459000.5 (2020-May-31.0) TDB
Reference: JPL 13 (heliocentric ecliptic J2000)
Element | Value | Uncertainty (1-sigma) | Units |
e | .1344942014926732 | 5.2662e-08 | |
a | 2.418280820630371 | 1.4297e-08 | au |
q | 2.093036072674642 | 1.3386e-07 | au |
i | 5.424836698213456 | 4.5189e-06 | deg |
node | 271.3472084485263 | 6.2873e-05 | deg |
peri | 39.36803647500459 | 6.5802e-05 | deg |
M | 272.8915115383575 | 2.0636e-05 | deg |
tp | 2459332.865931658367 (2021-Apr-28.36593166) | 7.9619e-05 | TDB |
period | 1373.594439647519 3.76 | 1.2181e-05 3.335e-08 | d yr |
n | .2620860929608744 | 2.3242e-09 | deg/d |
Q | 2.743525568586099 | 1.622e-08 | au |
|
| | Orbit Determination Parameters
Additional Information
|
[ show covariance matrix ]
Physical Parameter Table
Parameter |
Symbol |
Value |
Units |
Sigma |
Reference |
Notes |
absolute magnitude |
H |
16.7 |
|
n/a |
MPO427056 |
|
|
173151 (1995 WV24) Discovered 1995-Nov-18 by Spacewatch at Kitt Peak |
Reference: 20080122/Numbers.arc | Last Updated: 2008-01-28 |
|
|